Time,TemperatureF,DewpointF,PressureIn,WindDirection,WindDirectionDegrees,WindSpeedMPH,WindSpeedGustMPH,Humidity,HourlyPrecipIn,Conditions,Clouds,dailyrainin,SolarRadiationWatts/m^2,SoftwareType,DateUTC
2013-01-04 00:02:00,74.7,72.9,30.14,SE,130,0.0,0.0,94,0.00,,,0.09,0.0,meteohub,2013-01-04 04:02:00,
2013-01-04 00:07:00,74.7,73.2,30.14,SE,130,0.0,0.0,95,0.00,,,0.00,0.0,meteohub,2013-01-04 04:07:00,
2013-01-04 00:12:00,74.5,73.0,30.14,SE,131,0.0,0.0,95,0.00,,,0.00,0.0,meteohub,2013-01-04 04:12:00,
2013-01-04 00:17:00,74.1,72.7,30.14,SE,130,0.0,0.0,95,0.00,,,0.00,0.0,meteohub,2013-01-04 04:17:00,
2013-01-04 00:22:00,74.1,72.7,30.14,SE,130,0.0,0.0,95,0.00,,,0.00,0.0,meteohub,2013-01-04 04:22:00,
2013-01-04 00:27:00,74.1,72.7,30.14,SE,130,0.0,0.0,95,0.00,,,0.00,0.0,meteohub,2013-01-04 04:27:00,
2013-01-04 00:32:00,74.1,72.7,30.14,SE,130,0.0,0.0,95,0.00,,,0.00,0.0,meteohub,2013-01-04 04:32:00,
2013-01-04 00:37:00,73.9,72.5,30.14,SE,130,0.0,0.0,95,0.00,,,0.00,0.0,meteohub,2013-01-04 04:37:00,
2013-01-04 00:42:00,73.9,72.7,30.14,SE,128,0.0,0.0,96,0.00,,,0.00,0.0,meteohub,2013-01-04 04:42:00,
2013-01-04 00:47:00,73.9,72.7,30.13,SE,131,0.0,0.0,96,0.00,,,0.00,0.0,meteohub,2013-01-04 04:47:00,
2013-01-04 00:52:00,73.8,72.5,30.13,SE,130,0.0,0.0,96,0.00,,,0.00,0.0,meteohub,2013-01-04 04:52:00,
2013-01-04 00:57:00,73.9,72.7,30.13,SE,130,0.0,0.0,96,0.00,,,0.00,0.0,meteohub,2013-01-04 04:57:00,
2013-01-04 01:00:00,73.9,72.7,30.13,SE,130,0.0,0.0,96,0.00,,,0.00,0.0,meteohub,2013-01-04 05:00:00,
2013-01-04 01:02:00,73.9,72.7,30.13,SE,130,0.0,0.0,96,0.00,,,0.00,0.0,meteohub,2013-01-04 05:02:00,
2013-01-04 01:07:00,73.9,72.7,30.13,SE,130,0.0,0.0,96,0.00,,,0.00,0.0,meteohub,2013-01-04 05:07:00,
2013-01-04 01:12:00,73.8,72.5,30.13,SE,130,0.0,0.0,96,0.00,,,0.00,0.0,meteohub,2013-01-04 05:12:00,
2013-01-04 01:15:00,73.8,72.5,30.13,SE,130,0.0,0.0,96,0.00,,,0.00,0.0,meteohub,2013-01-04 05:15:00,
2013-01-04 01:20:00,73.6,72.3,30.13,SE,130,0.0,0.0,96,0.00,,,0.00,0.0,meteohub,2013-01-04 05:20:00,
2013-01-04 01:25:00,73.6,72.3,30.13,SE,130,0.0,0.0,96,0.00,,,0.00,0.0,meteohub,2013-01-04 05:25:00,
2013-01-04 01:30:00,73.6,72.3,30.12,SE,130,0.0,0.0,96,0.00,,,0.00,0.0,meteohub,2013-01-04 05:30:00,
2013-01-04 01:35:00,73.2,72.0,30.12,SE,130,0.0,0.0,96,0.00,,,0.00,0.0,meteohub,2013-01-04 05:35:00,
2013-01-04 01:40:00,73.6,72.3,30.12,SE,128,0.0,0.0,96,0.00,,,0.00,0.0,meteohub,2013-01-04 05:40:00,
2013-01-04 01:45:00,73.6,72.3,30.12,SE,130,0.0,0.0,96,0.00,,,0.00,0.0,meteohub,2013-01-04 05:45:00,
2013-01-04 01:50:00,73.2,72.0,30.12,SE,126,0.0,0.0,96,0.00,,,0.00,0.0,meteohub,2013-01-04 05:50:00,
2013-01-04 01:55:00,73.2,72.0,30.12,SE,130,0.0,0.0,96,0.00,,,0.00,0.0,meteohub,2013-01-04 05:55:00,
2013-01-04 02:01:00,73.0,71.8,30.12,SE,130,0.0,0.0,96,0.00,,,0.00,0.0,meteohub,2013-01-04 06:01:00,
2013-01-04 02:06:00,73.0,71.8,30.12,SE,130,0.0,0.0,96,0.00,,,0.00,0.0,meteohub,2013-01-04 06:06:00,
2013-01-04 02:11:00,72.9,72.0,30.12,SE,131,0.0,0.0,97,0.00,,,0.00,0.0,meteohub,2013-01-04 06:11:00,
2013-01-04 02:16:00,72.9,72.0,30.12,SE,130,0.0,0.0,97,0.00,,,0.00,0.0,meteohub,2013-01-04 06:16:00,
2013-01-04 02:21:00,72.7,71.8,30.12,SE,130,0.0,0.0,97,0.00,,,0.00,0.0,meteohub,2013-01-04 06:21:00,
2013-01-04 02:26:00,72.7,72.1,30.12,SE,130,0.0,0.0,98,0.00,,,0.00,0.0,meteohub,2013-01-04 06:26:00,
2013-01-04 02:31:00,72.5,72.0,30.11,SE,130,0.0,0.0,98,0.00,,,0.00,0.0,meteohub,2013-01-04 06:31:00,
2013-01-04 02:36:00,72.5,72.0,30.11,SE,131,0.0,0.0,98,0.00,,,0.00,0.0,meteohub,2013-01-04 06:36:00,
2013-01-04 02:41:00,72.5,72.0,30.11,SE,130,0.0,0.0,98,0.00,,,0.00,0.0,meteohub,2013-01-04 06:41:00,
2013-01-04 02:46:00,72.3,71.8,30.11,SE,130,0.0,0.0,98,0.00,,,0.00,0.0,meteohub,2013-01-04 06:46:00,
2013-01-04 02:51:00,72.3,71.8,30.11,SE,130,0.0,0.0,98,0.00,,,0.00,0.0,meteohub,2013-01-04 06:51:00,
2013-01-04 02:56:00,72.3,72.0,30.11,SE,130,0.0,0.0,99,0.00,,,0.00,0.0,meteohub,2013-01-04 06:56:00,
2013-01-04 03:01:00,72.1,71.8,30.11,SE,130,0.0,0.0,99,0.00,,,0.00,0.0,meteohub,2013-01-04 07:01:00,
2013-01-04 03:06:00,72.1,71.8,30.11,SE,130,0.0,0.0,99,0.00,,,0.00,0.0,meteohub,2013-01-04 07:06:00,
2013-01-04 03:11:00,72.1,71.8,30.11,SE,133,0.0,1.0,99,0.00,,,0.00,0.0,meteohub,2013-01-04 07:11:00,
2013-01-04 03:16:00,72.0,71.6,30.11,SE,133,0.0,1.0,99,0.00,,,0.00,0.0,meteohub,2013-01-04 07:16:00,
2013-01-04 03:21:00,72.0,71.6,30.11,SE,133,0.0,1.0,99,0.00,,,0.00,0.0,meteohub,2013-01-04 07:21:00,
2013-01-04 03:26:00,71.8,71.4,30.11,SE,131,0.0,0.0,99,0.00,,,0.00,0.0,meteohub,2013-01-04 07:26:00,
2013-01-04 03:31:00,71.8,71.4,30.11,SE,133,0.0,0.0,99,0.00,,,0.00,0.0,meteohub,2013-01-04 07:31:00,
2013-01-04 03:36:00,71.8,71.4,30.11,SE,131,0.0,0.0,99,0.00,,,0.00,0.0,meteohub,2013-01-04 07:36:00,
2013-01-04 03:41:00,71.8,71.4,30.11,SE,131,0.0,0.0,99,0.00,,,0.00,0.0,meteohub,2013-01-04 07:41:00,
2013-01-04 03:46:00,71.6,71.2,30.10,SE,131,0.0,0.0,99,0.00,,,0.00,0.0,meteohub,2013-01-04 07:46:00,
2013-01-04 03:51:00,71.6,71.6,30.10,SE,133,0.0,0.0,100,0.00,,,0.00,0.0,meteohub,2013-01-04 07:51:00,
2013-01-04 03:56:00,71.8,71.8,30.10,SE,133,0.0,0.0,100,0.00,,,0.00,0.0,meteohub,2013-01-04 07:56:00,
2013-01-04 04:02:00,71.8,71.8,30.11,SE,133,0.0,0.0,100,0.00,,,0.00,0.0,meteohub,2013-01-04 08:02:00,
2013-01-04 04:07:00,71.6,71.6,30.11,SE,131,0.0,0.0,100,0.00,,,0.00,0.0,meteohub,2013-01-04 08:07:00,
2013-01-04 04:12:00,71.4,71.4,30.11,SE,133,0.0,0.0,100,0.00,,,0.00,0.0,meteohub,2013-01-04 08:12:00,
2013-01-04 04:17:00,71.4,71.4,30.11,SE,133,0.0,0.0,100,0.00,,,0.00,0.0,meteohub,2013-01-04 08:17:00,
2013-01-04 04:22:00,71.2,71.2,30.11,SE,131,0.0,0.0,100,0.00,,,0.00,0.0,meteohub,2013-01-04 08:22:00,
2013-01-04 04:27:00,71.2,71.2,30.11,SE,133,0.0,0.0,100,0.00,,,0.00,0.0,meteohub,2013-01-04 08:27:00,
2013-01-04 04:32:00,71.2,71.2,30.11,SE,133,0.0,0.0,100,0.00,,,0.00,0.0,meteohub,2013-01-04 08:32:00,
2013-01-04 04:37:00,71.2,71.2,30.11,SE,133,0.0,0.0,100,0.00,,,0.00,0.0,meteohub,2013-01-04 08:37:00,
2013-01-04 04:42:00,71.2,71.2,30.11,SE,133,0.0,0.0,100,0.00,,,0.00,0.0,meteohub,2013-01-04 08:42:00,
2013-01-04 04:47:00,71.1,71.1,30.11,SE,133,0.0,0.0,100,0.00,,,0.00,0.0,meteohub,2013-01-04 08:47:00,
2013-01-04 04:52:00,71.2,71.2,30.11,SE,133,0.0,0.0,100,0.00,,,0.00,0.0,meteohub,2013-01-04 08:52:00,
2013-01-04 04:57:00,71.2,71.2,30.11,SE,133,0.0,0.0,100,0.00,,,0.00,0.0,meteohub,2013-01-04 08:57:00,
2013-01-04 05:02:00,71.2,71.2,30.11,SE,131,0.0,0.0,100,0.00,,,0.00,0.0,meteohub,2013-01-04 09:02:00,
2013-01-04 05:07:00,71.2,71.2,30.11,SE,131,0.0,0.0,100,0.00,,,0.00,0.0,meteohub,2013-01-04 09:07:00,
2013-01-04 05:12:00,71.2,71.2,30.11,SE,131,0.0,0.0,100,0.00,,,0.00,0.0,meteohub,2013-01-04 09:12:00,
2013-01-04 05:17:00,71.1,71.1,30.12,SE,133,0.0,0.0,100,0.00,,,0.00,0.0,meteohub,2013-01-04 09:17:00,
2013-01-04 05:22:00,71.1,71.1,30.12,SE,133,0.0,0.0,100,0.00,,,0.00,0.0,meteohub,2013-01-04 09:22:00,
2013-01-04 05:27:00,71.1,71.1,30.12,SE,133,0.0,0.0,100,0.00,,,0.00,0.0,meteohub,2013-01-04 09:27:00,
2013-01-04 05:32:00,70.9,70.9,30.12,SE,133,0.0,0.0,100,0.00,,,0.00,0.0,meteohub,2013-01-04 09:32:00,
2013-01-04 05:37:00,70.9,70.9,30.12,SE,133,0.0,0.0,100,0.00,,,0.00,0.0,meteohub,2013-01-04 09:37:00,
2013-01-04 05:42:00,70.9,70.9,30.12,SE,133,0.0,0.0,100,0.00,,,0.00,0.0,meteohub,2013-01-04 09:42:00,
2013-01-04 05:47:00,70.9,70.9,30.12,SE,133,0.0,0.0,100,0.00,,,0.00,0.0,meteohub,2013-01-04 09:47:00,
2013-01-04 05:52:00,70.9,70.9,30.12,SE,134,0.0,0.0,100,0.00,,,0.00,0.0,meteohub,2013-01-04 09:52:00,
2013-01-04 05:57:00,70.9,70.9,30.12,SE,133,0.0,0.0,100,0.00,,,0.00,0.0,meteohub,2013-01-04 09:57:00,
2013-01-04 06:02:00,70.9,70.9,30.13,SE,133,0.0,0.0,100,0.00,,,0.00,0.0,meteohub,2013-01-04 10:02:00,
2013-01-04 06:07:00,70.9,70.9,30.13,SE,133,0.0,0.0,100,0.00,,,0.00,0.0,meteohub,2013-01-04 10:07:00,
2013-01-04 06:12:00,70.9,70.9,30.13,SE,133,0.0,0.0,100,0.00,,,0.00,0.0,meteohub,2013-01-04 10:12:00,
2013-01-04 06:18:00,70.9,70.9,30.13,SE,131,0.0,0.0,100,0.00,,,0.00,0.0,meteohub,2013-01-04 10:18:00,
2013-01-04 06:23:00,70.9,70.9,30.13,SE,133,0.0,0.0,100,0.00,,,0.00,0.0,meteohub,2013-01-04 10:23:00,
2013-01-04 06:28:00,70.9,70.9,30.14,SE,131,0.0,0.0,100,0.00,,,0.00,0.0,meteohub,2013-01-04 10:28:00,
2013-01-04 06:33:00,70.9,70.9,30.14,SE,133,0.0,0.0,100,0.00,,,0.00,0.0,meteohub,2013-01-04 10:33:00,
2013-01-04 06:38:00,70.9,70.9,30.14,SE,133,0.0,0.0,100,0.00,,,0.00,0.0,meteohub,2013-01-04 10:38:00,
2013-01-04 06:43:00,70.9,70.9,30.14,SE,133,0.0,0.0,100,0.00,,,0.00,0.0,meteohub,2013-01-04 10:43:00,
2013-01-04 06:48:00,70.9,70.9,30.14,SE,133,0.0,0.0,100,0.00,,,0.00,0.0,meteohub,2013-01-04 10:48:00,
2013-01-04 06:53:00,70.9,70.9,30.14,SE,134,0.0,0.0,100,0.00,,,0.00,0.0,meteohub,2013-01-04 10:53:00,
2013-01-04 06:58:00,70.9,70.9,30.15,SE,134,0.0,0.0,100,0.00,,,0.00,0.0,meteohub,2013-01-04 10:58:00,
2013-01-04 07:03:00,70.9,70.9,30.15,SE,134,0.0,0.0,100,0.00,,,0.00,5.0,meteohub,2013-01-04 11:03:00,
2013-01-04 07:08:00,70.9,70.9,30.15,SE,131,0.0,0.0,100,0.00,,,0.00,11.0,meteohub,2013-01-04 11:08:00,
2013-01-04 07:13:00,70.9,70.9,30.16,SE,133,0.0,0.0,100,0.00,,,0.00,21.0,meteohub,2013-01-04 11:13:00,
2013-01-04 07:18:00,70.9,70.9,30.16,SE,131,0.0,0.0,100,0.00,,,0.00,28.0,meteohub,2013-01-04 11:18:00,
2013-01-04 07:23:00,71.1,71.1,30.16,SE,133,0.0,0.0,100,0.00,,,0.00,44.0,meteohub,2013-01-04 11:23:00,
2013-01-04 07:28:00,71.2,71.2,30.16,SE,133,0.0,0.0,100,0.00,,,0.00,33.0,meteohub,2013-01-04 11:28:00,
2013-01-04 07:33:00,71.4,71.4,30.16,SE,134,0.0,0.0,100,0.00,,,0.00,90.0,meteohub,2013-01-04 11:33:00,
2013-01-04 07:38:00,71.6,71.6,30.16,SE,133,0.0,0.0,100,0.00,,,0.00,104.0,meteohub,2013-01-04 11:38:00,
2013-01-04 07:43:00,71.8,71.8,30.17,SE,133,0.0,0.0,100,0.00,,,0.00,121.0,meteohub,2013-01-04 11:43:00,
2013-01-04 07:48:00,72.0,72.0,30.17,SE,131,0.0,0.0,100,0.00,,,0.00,139.0,meteohub,2013-01-04 11:48:00,
2013-01-04 07:53:00,72.3,72.3,30.17,SE,133,0.0,0.0,100,0.00,,,0.00,160.0,meteohub,2013-01-04 11:53:00,
2013-01-04 07:58:00,72.5,72.1,30.17,SE,133,0.0,0.0,99,0.00,,,0.00,176.0,meteohub,2013-01-04 11:58:00,
2013-01-04 08:03:00,73.0,72.5,30.17,SE,133,0.0,0.0,98,0.00,,,0.00,195.0,meteohub,2013-01-04 12:03:00,
2013-01-04 08:09:00,73.6,72.7,30.17,SE,131,0.0,0.0,97,0.00,,,0.00,213.0,meteohub,2013-01-04 12:09:00,
2013-01-04 08:14:00,73.9,72.7,30.18,SE,133,0.0,0.0,96,0.00,,,0.00,227.0,meteohub,2013-01-04 12:14:00,
2013-01-04 08:19:00,75.4,73.8,30.18,SE,133,0.0,0.0,95,0.00,,,0.00,248.0,meteohub,2013-01-04 12:19:00,
2013-01-04 08:23:00,75.9,73.4,30.18,SE,133,0.0,0.0,92,0.00,,,0.00,264.0,meteohub,2013-01-04 12:23:00,
2013-01-04 08:29:00,76.5,73.2,30.19,SE,131,0.0,4.0,90,0.00,,,0.00,308.0,meteohub,2013-01-04 12:29:00,
2013-01-04 08:34:00,77.0,73.6,30.19,SE,145,0.0,4.0,89,0.00,,,0.00,269.0,meteohub,2013-01-04 12:34:00,
2013-01-04 08:39:00,77.4,73.2,30.19,SE,144,0.0,4.0,87,0.00,,,0.00,320.0,meteohub,2013-01-04 12:39:00,
2013-01-04 08:44:00,77.9,73.4,30.19,SE,144,2.0,2.0,86,0.00,,,0.00,341.0,meteohub,2013-01-04 12:44:00,
2013-01-04 08:49:00,78.3,73.4,30.19,SE,133,5.0,5.0,85,0.00,,,0.00,357.0,meteohub,2013-01-04 12:49:00,
2013-01-04 08:54:00,78.4,73.6,30.19,SE,140,0.0,6.0,85,0.00,,,0.00,375.0,meteohub,2013-01-04 12:54:00,
2013-01-04 08:59:00,78.8,73.6,30.19,SE,136,0.0,6.0,84,0.00,,,0.00,391.0,meteohub,2013-01-04 12:59:00,
2013-01-04 09:04:00,79.2,73.9,30.19,SE,136,0.0,6.0,84,0.00,,,0.00,408.0,meteohub,2013-01-04 13:04:00,
2013-01-04 09:09:00,79.3,73.8,30.19,SE,136,0.0,5.0,83,0.00,,,0.00,426.0,meteohub,2013-01-04 13:09:00,
2013-01-04 09:14:00,79.9,73.9,30.20,SE,137,0.0,5.0,82,0.00,,,0.00,442.0,meteohub,2013-01-04 13:14:00,
2013-01-04 09:19:00,80.4,74.5,30.20,ESE,112,0.0,5.0,82,0.00,,,0.00,452.0,meteohub,2013-01-04 13:19:00,
2013-01-04 09:24:00,80.8,74.5,30.20,East,88,0.0,7.0,81,0.00,,,0.00,473.0,meteohub,2013-01-04 13:24:00,
2013-01-04 09:29:00,81.1,74.7,30.20,East,92,0.0,12.0,81,0.00,,,0.00,489.0,meteohub,2013-01-04 13:29:00,
2013-01-04 09:34:00,81.1,74.3,30.20,East,100,10.0,12.0,80,0.00,,,0.00,509.0,meteohub,2013-01-04 13:34:00,
2013-01-04 09:39:00,81.3,74.5,30.20,East,90,0.0,12.0,80,0.00,,,0.00,530.0,meteohub,2013-01-04 13:39:00,
2013-01-04 09:44:00,81.3,74.1,30.20,ESE,112,7.0,11.0,79,0.00,,,0.00,540.0,meteohub,2013-01-04 13:44:00,
2013-01-04 09:49:00,81.1,74.3,30.20,SE,145,12.0,12.0,80,0.00,,,0.00,524.0,meteohub,2013-01-04 13:49:00,
2013-01-04 09:54:00,81.3,74.5,30.20,ESE,102,7.0,16.0,80,0.00,,,0.00,605.0,meteohub,2013-01-04 13:54:00,
2013-01-04 09:59:00,81.7,74.8,30.20,ESE,114,2.0,20.0,80,0.00,,,0.00,626.0,meteohub,2013-01-04 13:59:00,
2013-01-04 10:05:00,82.2,75.0,30.20,SE,126,0.0,20.0,79,0.00,,,0.00,632.0,meteohub,2013-01-04 14:05:00,
2013-01-04 10:09:00,82.6,75.4,30.20,East,99,6.0,20.0,79,0.00,,,0.00,670.0,meteohub,2013-01-04 14:09:00,
2013-01-04 10:15:00,82.6,75.4,30.20,ESE,113,10.0,14.0,79,0.00,,,0.00,665.0,meteohub,2013-01-04 14:15:00,
2013-01-04 10:20:00,82.4,75.2,30.20,SE,126,0.0,13.0,79,0.00,,,0.00,172.0,meteohub,2013-01-04 14:20:00,
2013-01-04 10:25:00,82.8,75.2,30.20,SE,137,6.0,13.0,78,0.00,,,0.00,160.0,meteohub,2013-01-04 14:25:00,
2013-01-04 10:30:00,82.9,75.0,30.19,ESE,121,6.0,13.0,77,0.00,,,0.00,537.0,meteohub,2013-01-04 14:30:00,
2013-01-04 10:35:00,83.5,75.0,30.19,SE,136,0.0,12.0,76,0.00,,,0.00,757.0,meteohub,2013-01-04 14:35:00,
2013-01-04 10:40:00,83.7,75.2,30.19,East,100,3.0,12.0,76,0.00,,,0.00,185.0,meteohub,2013-01-04 14:40:00,
2013-01-04 10:45:00,83.7,75.2,30.19,ESE,119,10.0,11.0,76,0.00,,,0.00,713.0,meteohub,2013-01-04 14:45:00,
2013-01-04 10:50:00,83.5,74.7,30.19,ESE,107,6.0,11.0,75,0.00,,,0.00,734.0,meteohub,2013-01-04 14:50:00,
2013-01-04 10:55:00,83.7,74.5,30.19,East,79,7.0,11.0,74,0.00,,,0.00,97.0,meteohub,2013-01-04 14:55:00,
2013-01-04 11:00:00,83.8,74.3,30.19,SE,130,7.0,15.0,73,0.00,,,0.00,727.0,meteohub,2013-01-04 15:00:00,
2013-01-04 11:05:00,84.0,73.9,30.19,East,82,7.0,15.0,72,0.00,,,0.00,640.0,meteohub,2013-01-04 15:05:00,
2013-01-04 11:10:00,84.0,73.9,30.19,East,99,0.0,16.0,72,0.00,,,0.00,503.0,meteohub,2013-01-04 15:10:00,
2013-01-04 11:15:00,84.7,74.3,30.18,ENE,73,5.0,16.0,71,0.00,,,0.00,582.0,meteohub,2013-01-04 15:15:00,
2013-01-04 11:20:00,85.3,74.8,30.18,East,82,10.0,12.0,71,0.00,,,0.00,707.0,meteohub,2013-01-04 15:20:00,
2013-01-04 11:25:00,84.7,74.3,30.18,East,90,0.0,13.0,71,0.00,,,0.00,772.0,meteohub,2013-01-04 15:25:00,
2013-01-04 11:30:00,85.1,74.1,30.18,SE,137,1.0,13.0,70,0.00,,,0.00,804.0,meteohub,2013-01-04 15:30:00,
2013-01-04 11:35:00,85.3,73.9,30.18,SE,130,8.0,13.0,69,0.00,,,0.00,693.0,meteohub,2013-01-04 15:35:00,
2013-01-04 11:40:00,85.5,74.1,30.18,East,80,7.0,13.0,69,0.00,,,0.00,816.0,meteohub,2013-01-04 15:40:00,
2013-01-04 11:45:00,85.3,74.3,30.17,East,88,8.0,13.0,70,0.00,,,0.00,853.0,meteohub,2013-01-04 15:45:00,
2013-01-04 11:50:00,85.1,74.7,30.17,East,90,4.0,14.0,71,0.00,,,0.00,806.0,meteohub,2013-01-04 15:50:00,
2013-01-04 11:55:00,85.3,73.9,30.17,ESE,106,6.0,14.0,69,0.00,,,0.00,853.0,meteohub,2013-01-04 15:55:00,
2013-01-04 12:00:00,84.9,74.8,30.17,ENE,68,0.0,13.0,72,0.00,,,0.00,860.0,meteohub,2013-01-04 16:00:00,
2013-01-04 12:05:00,84.9,74.5,30.17,East,85,0.0,13.0,71,0.00,,,0.00,489.0,meteohub,2013-01-04 16:05:00,
2013-01-04 12:10:00,85.1,74.7,30.17,East,80,12.0,13.0,71,0.00,,,0.00,489.0,meteohub,2013-01-04 16:10:00,
2013-01-04 12:15:00,85.3,75.2,30.16,ENE,73,5.0,14.0,72,0.00,,,0.00,841.0,meteohub,2013-01-04 16:15:00,
2013-01-04 12:20:00,85.8,74.8,30.16,East,79,2.0,14.0,70,0.00,,,0.00,834.0,meteohub,2013-01-04 16:20:00,
2013-01-04 12:26:00,86.5,75.2,30.16,ENE,73,0.0,14.0,69,0.00,,,0.00,852.0,meteohub,2013-01-04 16:26:00,
2013-01-04 12:31:00,86.4,75.0,30.15,ENE,72,12.0,14.0,69,0.00,,,0.00,839.0,meteohub,2013-01-04 16:31:00,
2013-01-04 12:36:00,85.8,74.8,30.15,ENE,78,10.0,16.0,70,0.00,,,0.00,818.0,meteohub,2013-01-04 16:36:00,
2013-01-04 12:41:00,85.8,74.8,30.15,East,90,6.0,18.0,70,0.00,,,0.00,686.0,meteohub,2013-01-04 16:41:00,
2013-01-04 12:46:00,85.5,74.5,30.14,East,90,10.0,18.0,70,0.00,,,0.00,827.0,meteohub,2013-01-04 16:46:00,
2013-01-04 12:51:00,85.5,74.5,30.14,East,97,1.0,18.0,70,0.00,,,0.00,890.0,meteohub,2013-01-04 16:51:00,
2013-01-04 12:56:00,85.5,74.5,30.14,NE,49,0.0,14.0,70,0.00,,,0.00,890.0,meteohub,2013-01-04 16:56:00,
2013-01-04 13:01:00,85.5,74.5,30.13,ESE,113,7.0,17.0,70,0.00,,,0.00,941.0,meteohub,2013-01-04 17:01:00,
2013-01-04 13:06:00,85.3,73.9,30.13,East,82,14.0,17.0,69,0.00,,,0.00,869.0,meteohub,2013-01-04 17:06:00,
2013-01-04 13:11:00,85.1,74.7,30.13,East,79,6.0,17.0,71,0.00,,,0.00,181.0,meteohub,2013-01-04 17:11:00,
2013-01-04 13:16:00,85.1,74.7,30.13,NE,48,8.0,17.0,71,0.00,,,0.00,869.0,meteohub,2013-01-04 17:16:00,
2013-01-04 13:21:00,85.5,74.1,30.13,East,92,6.0,17.0,69,0.00,,,0.00,813.0,meteohub,2013-01-04 17:21:00,
2013-01-04 13:26:00,85.5,73.8,30.13,East,83,2.0,19.0,68,0.00,,,0.00,783.0,meteohub,2013-01-04 17:26:00,
2013-01-04 13:31:00,85.5,73.8,30.12,East,93,0.0,19.0,68,0.00,,,0.00,769.0,meteohub,2013-01-04 17:31:00,
2013-01-04 13:36:00,85.8,73.6,30.12,ENE,73,7.0,19.0,67,0.00,,,0.00,769.0,meteohub,2013-01-04 17:36:00,
2013-01-04 13:41:00,85.6,73.0,30.12,ENE,62,10.0,19.0,66,0.00,,,0.00,765.0,meteohub,2013-01-04 17:41:00,
2013-01-04 13:46:00,85.8,72.7,30.11,ENE,69,10.0,19.0,65,0.00,,,0.00,732.0,meteohub,2013-01-04 17:46:00,
2013-01-04 13:51:00,85.6,72.5,30.11,East,79,14.0,19.0,65,0.00,,,0.00,723.0,meteohub,2013-01-04 17:51:00,
2013-01-04 13:56:00,85.5,73.2,30.11,East,82,3.0,17.0,67,0.00,,,0.00,714.0,meteohub,2013-01-04 17:56:00,
2013-01-04 14:01:00,85.8,73.6,30.11,East,79,10.0,17.0,67,0.00,,,0.00,707.0,meteohub,2013-01-04 18:01:00,
2013-01-04 14:06:00,85.6,73.4,30.11,East,95,7.0,17.0,67,0.00,,,0.00,691.0,meteohub,2013-01-04 18:06:00,
2013-01-04 14:11:00,85.6,73.4,30.11,ENE,78,9.0,16.0,67,0.00,,,0.00,683.0,meteohub,2013-01-04 18:11:00,
2013-01-04 14:16:00,85.5,73.2,30.10,NE,56,13.0,16.0,67,0.00,,,0.00,684.0,meteohub,2013-01-04 18:16:00,
2013-01-04 14:21:00,85.1,73.8,30.10,East,86,11.0,18.0,69,0.00,,,0.00,679.0,meteohub,2013-01-04 18:21:00,
2013-01-04 14:27:00,85.3,74.3,30.10,East,82,13.0,18.0,70,0.00,,,0.00,669.0,meteohub,2013-01-04 18:27:00,
2013-01-04 14:32:00,85.3,74.3,30.10,ENE,66,2.0,18.0,70,0.00,,,0.00,735.0,meteohub,2013-01-04 18:32:00,
2013-01-04 14:37:00,85.5,75.0,30.10,East,82,6.0,16.0,71,0.00,,,0.00,762.0,meteohub,2013-01-04 18:37:00,
2013-01-04 14:42:00,85.3,74.3,30.10,ENE,68,6.0,16.0,70,0.00,,,0.00,681.0,meteohub,2013-01-04 18:42:00,
2013-01-04 14:47:00,84.9,74.5,30.10,East,90,9.0,16.0,71,0.00,,,0.00,127.0,meteohub,2013-01-04 18:47:00,
2013-01-04 14:52:00,85.1,74.1,30.10,ENE,76,0.0,16.0,70,0.00,,,0.00,693.0,meteohub,2013-01-04 18:52:00,
2013-01-04 14:57:00,85.3,74.8,30.10,East,97,8.0,16.0,71,0.00,,,0.00,669.0,meteohub,2013-01-04 18:57:00,
2013-01-04 15:02:00,85.5,74.5,30.10,East,88,12.0,13.0,70,0.00,,,0.00,655.0,meteohub,2013-01-04 19:02:00,
2013-01-04 15:07:00,84.7,74.7,30.10,East,89,5.0,14.0,72,0.00,,,0.00,176.0,meteohub,2013-01-04 19:07:00,
2013-01-04 15:12:00,84.0,74.5,30.10,ENE,65,3.0,16.0,73,0.00,,,0.00,100.0,meteohub,2013-01-04 19:12:00,
2013-01-04 15:17:00,83.7,74.1,30.10,East,99,11.0,16.0,73,0.00,,,0.00,538.0,meteohub,2013-01-04 19:17:00,
2013-01-04 15:22:00,84.0,74.5,30.10,SE,133,6.0,16.0,73,0.00,,,0.00,480.0,meteohub,2013-01-04 19:22:00,
2013-01-04 15:27:00,84.6,74.5,30.10,ENE,61,1.0,14.0,72,0.00,,,0.00,533.0,meteohub,2013-01-04 19:27:00,
2013-01-04 15:32:00,84.6,75.0,30.10,East,82,0.0,14.0,73,0.00,,,0.00,472.0,meteohub,2013-01-04 19:32:00,
2013-01-04 15:37:00,84.4,74.8,30.10,ENE,62,5.0,16.0,73,0.00,,,0.00,457.0,meteohub,2013-01-04 19:37:00,
2013-01-04 15:42:00,84.4,74.8,30.10,NE,37,8.0,16.0,73,0.00,,,0.00,530.0,meteohub,2013-01-04 19:42:00,
2013-01-04 15:47:00,84.0,74.5,30.10,ESE,106,5.0,16.0,73,0.00,,,0.00,135.0,meteohub,2013-01-04 19:47:00,
2013-01-04 15:52:00,83.5,74.3,30.10,ENE,68,4.0,18.0,74,0.00,,,0.00,121.0,meteohub,2013-01-04 19:52:00,
2013-01-04 15:57:00,82.8,73.9,30.10,ENE,69,10.0,18.0,75,0.00,,,0.00,91.0,meteohub,2013-01-04 19:57:00,
2013-01-04 16:02:00,82.4,74.1,30.10,East,90,10.0,17.0,76,0.00,,,0.00,76.0,meteohub,2013-01-04 20:02:00,
2013-01-04 16:07:00,82.6,74.7,30.10,ESE,106,6.0,17.0,77,0.00,,,0.00,384.0,meteohub,2013-01-04 20:07:00,
2013-01-04 16:12:00,82.6,74.3,30.10,East,100,10.0,17.0,76,0.00,,,0.00,91.0,meteohub,2013-01-04 20:12:00,
2013-01-04 16:18:00,82.6,74.7,30.10,ESE,102,5.0,17.0,77,0.00,,,0.00,106.0,meteohub,2013-01-04 20:18:00,
2013-01-04 16:23:00,82.6,74.7,30.10,ENE,64,7.0,14.0,77,0.00,,,0.00,62.0,meteohub,2013-01-04 20:23:00,
2013-01-04 16:28:00,82.2,74.3,30.10,East,90,6.0,14.0,77,0.00,,,0.00,63.0,meteohub,2013-01-04 20:28:00,
2013-01-04 16:33:00,81.9,74.3,30.10,ENE,62,6.0,14.0,78,0.00,,,0.00,135.0,meteohub,2013-01-04 20:33:00,
2013-01-04 16:38:00,81.9,74.7,30.10,East,93,12.0,16.0,79,0.00,,,0.00,86.0,meteohub,2013-01-04 20:38:00,
2013-01-04 16:43:00,81.7,74.8,30.10,East,90,11.0,16.0,80,0.00,,,0.00,77.0,meteohub,2013-01-04 20:43:00,
2013-01-04 16:48:00,81.7,74.8,30.10,ENE,76,5.0,17.0,80,0.00,,,0.00,70.0,meteohub,2013-01-04 20:48:00,
2013-01-04 16:53:00,81.7,75.2,30.10,East,82,8.0,17.0,81,0.00,,,0.00,104.0,meteohub,2013-01-04 20:53:00,
2013-01-04 16:58:00,81.3,74.8,30.11,East,99,10.0,17.0,81,0.00,,,0.00,69.0,meteohub,2013-01-04 20:58:00,
2013-01-04 17:03:00,81.1,74.7,30.11,ENE,59,5.0,16.0,81,0.00,,,0.00,55.0,meteohub,2013-01-04 21:03:00,
2013-01-04 17:08:00,81.1,74.7,30.11,ENE,68,8.0,16.0,81,0.00,,,0.00,67.0,meteohub,2013-01-04 21:08:00,
2013-01-04 17:13:00,81.1,74.7,30.11,East,79,6.0,16.0,81,0.00,,,0.00,44.0,meteohub,2013-01-04 21:13:00,
2013-01-04 17:18:00,81.1,75.2,30.11,East,100,4.0,16.0,82,0.00,,,0.00,56.0,meteohub,2013-01-04 21:18:00,
2013-01-04 17:23:00,81.1,75.2,30.11,East,80,3.0,16.0,82,0.00,,,0.00,49.0,meteohub,2013-01-04 21:23:00,
2013-01-04 17:28:00,81.1,75.2,30.11,East,92,0.0,14.0,82,0.00,,,0.00,55.0,meteohub,2013-01-04 21:28:00,
2013-01-04 17:33:00,81.1,75.2,30.11,ENE,72,2.0,14.0,82,0.00,,,0.00,35.0,meteohub,2013-01-04 21:33:00,
2013-01-04 17:38:00,81.0,75.0,30.11,East,89,5.0,14.0,82,0.00,,,0.00,26.0,meteohub,2013-01-04 21:38:00,
2013-01-04 17:43:00,80.8,75.2,30.11,ENE,71,2.0,14.0,83,0.00,,,0.00,25.0,meteohub,2013-01-04 21:43:00,
2013-01-04 17:48:00,80.8,75.2,30.11,ENE,78,8.0,14.0,83,0.00,,,0.00,18.0,meteohub,2013-01-04 21:48:00,
2013-01-04 17:54:00,80.4,74.8,30.11,East,90,2.0,14.0,83,0.00,,,0.00,11.0,meteohub,2013-01-04 21:54:00,
2013-01-04 17:59:00,80.4,74.8,30.12,ESE,116,6.0,11.0,83,0.00,,,0.00,9.0,meteohub,2013-01-04 21:59:00,
2013-01-04 18:04:00,80.2,75.0,30.12,East,89,7.0,13.0,84,0.00,,,0.00,0.0,meteohub,2013-01-04 22:04:00,
2013-01-04 18:09:00,80.2,75.0,30.12,ENE,71,11.0,13.0,84,0.00,,,0.00,0.0,meteohub,2013-01-04 22:09:00,
2013-01-04 18:14:00,80.1,74.8,30.12,ENE,78,0.0,13.0,84,0.00,,,0.00,0.0,meteohub,2013-01-04 22:14:00,
2013-01-04 18:19:00,80.1,74.8,30.12,East,79,8.0,12.0,84,0.00,,,0.00,0.0,meteohub,2013-01-04 22:19:00,
2013-01-04 18:24:00,80.1,74.8,30.12,East,88,7.0,12.0,84,0.00,,,0.00,0.0,meteohub,2013-01-04 22:24:00,
2013-01-04 18:29:00,79.9,74.7,30.12,ENE,62,8.0,12.0,84,0.00,,,0.00,0.0,meteohub,2013-01-04 22:29:00,
2013-01-04 18:34:00,79.9,74.7,30.12,East,90,11.0,12.0,84,0.00,,,0.00,0.0,meteohub,2013-01-04 22:34:00,
2013-01-04 18:39:00,79.9,74.7,30.12,ESE,102,3.0,12.0,84,0.00,,,0.00,0.0,meteohub,2013-01-04 22:39:00,
2013-01-04 18:44:00,79.9,75.0,30.12,East,86,0.0,14.0,85,0.00,,,0.00,0.0,meteohub,2013-01-04 22:44:00,
2013-01-04 18:49:00,79.9,75.0,30.12,ESE,109,1.0,14.0,85,0.00,,,0.00,0.0,meteohub,2013-01-04 22:49:00,
2013-01-04 18:54:00,79.9,75.0,30.12,East,90,0.0,14.0,85,0.00,,,0.00,0.0,meteohub,2013-01-04 22:54:00,
2013-01-04 19:00:00,79.9,75.0,30.13,ENE,62,0.0,11.0,85,0.00,,,0.00,0.0,meteohub,2013-01-04 23:00:00,
2013-01-04 19:05:00,79.5,74.7,30.13,ENE,65,8.0,11.0,85,0.00,,,0.00,0.0,meteohub,2013-01-04 23:05:00,
2013-01-04 19:10:00,79.5,74.7,30.13,East,88,0.0,11.0,85,0.00,,,0.00,0.0,meteohub,2013-01-04 23:10:00,
2013-01-04 19:15:00,79.5,74.7,30.13,ENE,69,0.0,13.0,85,0.00,,,0.00,0.0,meteohub,2013-01-04 23:15:00,
2013-01-04 19:20:00,79.5,74.7,30.13,East,83,0.0,13.0,85,0.00,,,0.00,0.0,meteohub,2013-01-04 23:20:00,
2013-01-04 19:24:00,79.5,74.7,30.13,East,89,3.0,11.0,85,0.00,,,0.00,0.0,meteohub,2013-01-04 23:24:00,
2013-01-04 19:29:00,79.5,74.3,30.13,East,82,0.0,10.0,84,0.00,,,0.00,0.0,meteohub,2013-01-04 23:29:00,
2013-01-04 19:35:00,79.5,74.3,30.13,East,82,10.0,11.0,84,0.00,,,0.00,0.0,meteohub,2013-01-04 23:35:00,
2013-01-04 19:40:00,79.3,74.1,30.13,East,82,5.0,12.0,84,0.00,,,0.00,0.0,meteohub,2013-01-04 23:40:00,
2013-01-04 19:45:00,79.5,74.3,30.14,East,93,0.0,12.0,84,0.00,,,0.00,0.0,meteohub,2013-01-04 23:45:00,
2013-01-04 19:50:00,79.5,74.3,30.14,East,89,7.0,12.0,84,0.00,,,0.00,0.0,meteohub,2013-01-04 23:50:00,
2013-01-04 19:55:00,79.5,74.3,30.14,East,90,5.0,12.0,84,0.00,,,0.00,0.0,meteohub,2013-01-04 23:55:00,
2013-01-04 20:00:00,79.5,74.3,30.14,East,97,0.0,11.0,84,0.00,,,0.00,0.0,meteohub,2013-01-05 00:00:00,
2013-01-04 20:05:00,79.5,74.3,30.14,East,86,5.0,10.0,84,0.00,,,0.00,0.0,meteohub,2013-01-05 00:05:00,
2013-01-04 20:10:00,79.5,74.3,30.14,East,82,0.0,11.0,84,0.00,,,0.00,0.0,meteohub,2013-01-05 00:10:00,
2013-01-04 20:15:00,79.5,74.3,30.15,ENE,76,6.0,11.0,84,0.00,,,0.00,0.0,meteohub,2013-01-05 00:15:00,
2013-01-04 20:20:00,79.5,74.7,30.15,East,89,6.0,11.0,85,0.00,,,0.00,0.0,meteohub,2013-01-05 00:20:00,
2013-01-04 20:25:00,79.5,74.7,30.15,East,92,0.0,11.0,85,0.00,,,0.00,0.0,meteohub,2013-01-05 00:25:00,
2013-01-04 20:30:00,79.5,75.0,30.15,East,79,0.0,11.0,86,0.00,,,0.00,0.0,meteohub,2013-01-05 00:30:00,
2013-01-04 20:35:00,79.3,74.8,30.15,East,95,7.0,12.0,86,0.00,,,0.00,0.0,meteohub,2013-01-05 00:35:00,
2013-01-04 20:40:00,79.2,75.0,30.15,East,79,1.0,12.0,87,0.00,,,0.00,0.0,meteohub,2013-01-05 00:40:00,
2013-01-04 20:45:00,79.2,75.0,30.16,ENE,72,0.0,12.0,87,0.00,,,0.00,0.0,meteohub,2013-01-05 00:45:00,
2013-01-04 20:50:00,79.2,75.0,30.16,ESE,114,5.0,8.0,87,0.00,,,0.00,0.0,meteohub,2013-01-05 00:50:00,
2013-01-04 20:55:00,79.0,74.8,30.16,East,88,0.0,6.0,87,0.00,,,0.00,0.0,meteohub,2013-01-05 00:55:00,
2013-01-04 21:01:00,79.0,74.8,30.16,East,88,0.0,6.0,87,0.00,,,0.00,0.0,meteohub,2013-01-05 01:01:00,
2013-01-04 21:06:00,79.2,75.0,30.16,East,80,5.0,7.0,87,0.00,,,0.00,0.0,meteohub,2013-01-05 01:06:00,
2013-01-04 21:11:00,79.2,74.7,30.16,ENE,76,0.0,10.0,86,0.00,,,0.00,0.0,meteohub,2013-01-05 01:11:00,
2013-01-04 21:16:00,79.2,74.7,30.16,ENE,76,6.0,11.0,86,0.00,,,0.00,0.0,meteohub,2013-01-05 01:16:00,
2013-01-04 21:21:00,79.2,74.7,30.16,East,99,8.0,12.0,86,0.00,,,0.00,0.0,meteohub,2013-01-05 01:21:00,
2013-01-04 21:26:00,79.0,74.1,30.16,East,86,0.0,12.0,85,0.00,,,0.00,0.0,meteohub,2013-01-05 01:26:00,
2013-01-04 21:31:00,79.0,74.1,30.16,East,100,0.0,12.0,85,0.00,,,0.00,0.0,meteohub,2013-01-05 01:31:00,
2013-01-04 21:36:00,79.0,74.1,30.16,East,93,3.0,13.0,85,0.00,,,0.00,0.0,meteohub,2013-01-05 01:36:00,
2013-01-04 21:41:00,79.0,74.5,30.16,NE,35,0.0,13.0,86,0.00,,,0.00,0.0,meteohub,2013-01-05 01:41:00,
2013-01-04 21:46:00,78.8,74.3,30.16,ESE,102,3.0,13.0,86,0.00,,,0.00,0.0,meteohub,2013-01-05 01:46:00,
2013-01-04 21:51:00,78.8,74.3,30.16,East,79,6.0,9.0,86,0.00,,,0.00,0.0,meteohub,2013-01-05 01:51:00,
2013-01-04 21:56:00,78.8,74.3,30.16,East,80,4.0,12.0,86,0.00,,,0.00,0.0,meteohub,2013-01-05 01:56:00,
2013-01-04 22:01:00,78.6,74.1,30.16,East,100,7.0,13.0,86,0.00,,,0.00,0.0,meteohub,2013-01-05 02:01:00,
2013-01-04 22:06:00,78.6,74.1,30.16,East,82,0.0,14.0,86,0.00,,,0.00,0.0,meteohub,2013-01-05 02:06:00,
2013-01-04 22:11:00,78.6,74.1,30.16,East,93,0.0,14.0,86,0.00,,,0.00,0.0,meteohub,2013-01-05 02:11:00,
2013-01-04 22:16:00,78.6,74.1,30.16,ENE,75,5.0,10.0,86,0.00,,,0.00,0.0,meteohub,2013-01-05 02:16:00,
2013-01-04 22:21:00,78.6,74.1,30.16,ENE,78,0.0,8.0,86,0.00,,,0.00,0.0,meteohub,2013-01-05 02:21:00,
2013-01-04 22:26:00,78.6,74.1,30.16,ENE,78,2.0,8.0,86,0.00,,,0.00,0.0,meteohub,2013-01-05 02:26:00,
2013-01-04 22:31:00,78.6,74.1,30.16,ENE,75,0.0,11.0,86,0.00,,,0.00,0.0,meteohub,2013-01-05 02:31:00,
2013-01-04 22:36:00,78.6,74.1,30.16,ENE,71,0.0,11.0,86,0.00,,,0.00,0.0,meteohub,2013-01-05 02:36:00,
2013-01-04 22:42:00,78.6,74.1,30.16,East,88,7.0,11.0,86,0.00,,,0.00,0.0,meteohub,2013-01-05 02:42:00,
2013-01-04 22:46:00,78.8,74.3,30.16,ENE,59,5.0,11.0,86,0.00,,,0.00,0.0,meteohub,2013-01-05 02:46:00,
2013-01-04 22:52:00,78.8,74.3,30.16,ESE,102,0.0,13.0,86,0.00,,,0.00,0.0,meteohub,2013-01-05 02:52:00,
2013-01-04 22:57:00,78.8,74.3,30.16,ENE,69,2.0,13.0,86,0.00,,,0.00,0.0,meteohub,2013-01-05 02:57:00,
2013-01-04 23:01:00,78.8,74.3,30.16,East,92,0.0,13.0,86,0.00,,,0.00,0.0,meteohub,2013-01-05 03:01:00,
2013-01-04 23:07:00,78.8,74.3,30.16,ENE,76,0.0,8.0,86,0.00,,,0.00,0.0,meteohub,2013-01-05 03:07:00,
2013-01-04 23:12:00,78.8,74.3,30.16,East,86,4.0,11.0,86,0.00,,,0.00,0.0,meteohub,2013-01-05 03:12:00,
2013-01-04 23:16:00,78.8,74.3,30.16,East,88,0.0,11.0,86,0.00,,,0.00,0.0,meteohub,2013-01-05 03:16:00,
2013-01-04 23:22:00,78.8,74.7,30.16,East,88,7.0,10.0,87,0.00,,,0.00,0.0,meteohub,2013-01-05 03:22:00,
2013-01-04 23:26:00,78.8,74.7,30.16,ENE,69,0.0,10.0,87,0.00,,,0.00,0.0,meteohub,2013-01-05 03:26:00,
2013-01-04 23:31:00,78.8,74.7,30.16,East,83,0.0,11.0,87,0.00,,,0.00,0.0,meteohub,2013-01-05 03:31:00,
2013-01-04 23:36:00,78.6,74.5,30.16,ENE,62,0.0,11.0,87,0.00,,,0.00,0.0,meteohub,2013-01-05 03:36:00,
2013-01-04 23:41:00,78.6,74.5,30.16,East,100,7.0,10.0,87,0.00,,,0.00,0.0,meteohub,2013-01-05 03:41:00,
2013-01-04 23:46:00,78.6,74.5,30.16,ENE,78,2.0,13.0,87,0.00,,,0.00,0.0,meteohub,2013-01-05 03:46:00,
2013-01-04 23:52:00,78.6,74.5,30.16,East,89,3.0,13.0,87,0.00,,,0.00,0.0,meteohub,2013-01-05 03:52:00,
2013-01-04 23:56:00,78.6,74.5,30.16,East,95,6.0,13.0,87,0.00,,,0.00,0.0,meteohub,2013-01-05 03:56:00,